Starlink 32168

operational
NORAD ID: 60335 Int'l Des: 2024-136 Owner: SPXS Country: US Constellation: starlink
LEOCIRCULAR

Über Starlink 32168

Beschreibung wird geladen...

Live-Position

3D-Globus wird geladen...

Nächste Überflüge

Höhenverlauf

Altitude vs Time

uPlot chart will show altitude changes over time

Zweizeiliger Elementsatz

1 60335U 24136G 25260.93842605 -.00000118 00000-0 81331-5 0 9997
2 60335 53.1598 158.2180 0000864 87.8064 272.3036 15.30201114 63219
Epoch: 17. Sept. 2025 • Age: 23 hours

Aktueller Status

Höhe 491.6 km
Geschwindigkeit 7.62 km/s
Subsatellitenpunkt -46.59°S, 137.41°E
Startdatum 2. Aug. 2024
Alter 1.1 years
Typ internet

Technische Details

Klassifizierung Payload
Masse 730.00 kg
Trockenmasse 700.00 kg
Gesamtmasse 730.00 kg
Länge 0.30 m
Durchmesser 4.10 m
Spannweite 29.00 m
Form Box + pan
Hersteller SPXS
Bus-Typ Starlink V2M
Phasenstatus In Orbit
Besitzer/Staat SPXS/US

Große Konstellationen

Loading constellations...